Flag for U.S.A. Weather past 2 weeks in Philadelphia, Pennsylvania, U.S.A.

Now
48 °F

Passing clouds.


Feels Like: 45 °F
Forecast: 45 / 62 °F
Wind: 6 mph from Northwest

Location: Philadelphia International Airport

Current Time: Apr 27, 2015 at 4:11:35 AM

Latest Report: Apr 27, 2015 at 2:54 AM


Visibility: 10 mi

Pressure: 29.73 "Hg

Humidity: 48%

Dew point: 29 °F

Location of PhiladelphiaLocation

Historic Weather in Philadelphia — Graph

°F

Philadelphia temperature yesterday

Maximum temperature yesterday: 62 °F (at 1:54 PM)
Minimum temperature yesterday: 47 °F (at 3:54 AM)
Average temperature yesterday: 55 °F

Past Weeks' High & Low Weather Summary

 TemperatureHumidityPressure
High80 °F (Apr 18, 3:54 PM)96% (Apr 20, 10:54 AM)30.46 "Hg (Apr 20, 10:54 AM)
Low40 °F (Apr 12, 5:54 AM)14% (Apr 15, 2:54 PM)29.54 "Hg (Apr 21, 12:54 AM)
Average58 °F50%29.99 "Hg
* Reported Apr 12 2:54 AM — Apr 27 2:54 AM, Philadelphia, Weather by CustomWeather, © 2015

Note: Actual official high and low records may vary slightly from our data, if they occured in-between our weather recording intervals... More about our weather records

Advertising

Philadelphia weather history for previous 24 hours

 ConditionsComfort  
Time TempWeatherWind HumidityBarometerVisibility
2:54 AM
Mon, Apr 27
48 °FPassing clouds.6 mph48%29.73 "Hg10 mi
1:54 AM52 °FClear.7 mph38%29.74 "Hg10 mi
12:54 AM53 °FPassing clouds.5 mph35%29.74 "Hg10 mi
11:54 PM
Sun, Apr 26
53 °FPassing clouds.5 mph39%29.74 "Hg10 mi
10:54 PM52 °FPassing clouds.3 mph53%29.74 "Hg10 mi
9:54 PM54 °FPassing clouds.7 mph49%29.72 "Hg10 mi
8:54 PM59 °FPassing clouds.12 mph31%29.69 "Hg10 mi
7:54 PM60 °FPartly sunny.5 mph28%29.68 "Hg10 mi
6:54 PM61 °FPartly sunny.9 mph26%29.67 "Hg10 mi
5:54 PM62 °FPartly sunny.3 mph26%29.67 "Hg10 mi
4:54 PM61 °FPartly sunny.No wind30%29.67 "Hg10 mi
3:54 PM60 °FPartly sunny.3 mph30%29.67 "Hg10 mi
2:54 PM60 °FScattered clouds.5 mph32%29.67 "Hg10 mi
1:54 PM62 °FScattered clouds.8 mph31%29.68 "Hg10 mi
12:54 PM61 °FPassing clouds.6 mph31%29.70 "Hg10 mi
11:54 AM59 °FPassing clouds.10 mph38%29.71 "Hg10 mi
10:54 AM57 °FScattered clouds.9 mph41%29.71 "Hg10 mi
9:54 AM53 °FScattered clouds.10 mph45%29.71 "Hg10 mi
8:54 AM52 °FBroken clouds.14 mph45%29.70 "Hg10 mi
7:54 AM49 °FBroken clouds.15 mph46%29.69 "Hg10 mi
6:54 AM49 °FPassing clouds.13 mph44%29.68 "Hg10 mi
5:54 AM48 °FPartly cloudy.8 mph48%29.67 "Hg10 mi
4:54 AM48 °FPassing clouds.7 mph48%29.67 "Hg10 mi
Weather by CustomWeather, © 2015

See weather overviewHow to use our weather pages